Temp
95 95 94 92 93 94 94 95 96 94 92 95 94 94 90 86 83 83 84 85 91 95 101 95 92 96 97 95 100 99 99 94 94 97 97 97 95 78 76 75 76 75 74 74 73 74 76 76 76 76 76 76 77 78 77 76 76 76 76 76 75 75 74 73 73 72 72 72 71 71 71 72 72 72
93 95 95 94 94 94 95 95 97 93 91 93 93 94 92 90 86 84 82 83 91 93 98 100 93 94 96 100 99 101 100 86 95 97 97 97 98 78 78 77 76 74 74 73 73 74 75 74 74 72 73 73 75 77 77 77 76 76 75 75 74 74 73 72 71 72 71 71 71 70 71 71 71 70
93 92 93 93 93 94 95 96 98 94 93 92 93 94 93 92 90 87 85 82 88 93 91 97 100 98 98 101 101 102 101 93 96 97 96 96 89 79 82 75 76 75 73 74 73 72 71 71 71 71 72 72 74 75 76 75 75 74 73 73 73 72 71 70 70 70 70 70 70 70 70 70 70 70
93 92 91 91 91 93 93 94 95 94 93 94 94 93 92 91 91 89 86 83 84 91 94 95 96 101 99 99 97 97 98 95 86 96 95 95 87 93 97 77 77 75 72 73 72 70 70 69 70 72 73 73 74 75 74 73 74 72 71 71 70 70 69 69 69 69 69 69 69 69 69 69 69 68
92 90 90 91 91 92 92 93 94 95 95 93 93 93 93 92 92 90 87 85 85 89 95 94 96 99 99 98 97 95 97 97 98 94 97 97 98 99 99 90 76 74 73 71 70 71 70 69 70 71 73 74 74 75 74 72 71 70 69 68 67 67 67 67 68 68 68 68 69 68 67 68 67 67
92 91 89 90 92 92 91 93 94 95 97 96 94 93 93 92 93 93 89 87 85 85 91 93 96 96 99 95 98 95 94 95 95 96 96 99 100 99 98 96 88 73 73 70 69 69 68 68 69 70 72 73 73 73 72 70 68 69 68 66 66 66 65 65 67 68 66 66 67 67 66 66 66 65
91 91 90 91 92 95 92 91 93 95 95 96 95 95 95 93 94 94 92 88 86 86 88 91 92 94 96 94 94 95 97 95 95 93 95 98 100 100 99 99 100 74 73 70 69 69 68 68 68 69 70 72 71 71 68 67 67 67 65 64 66 65 64 64 65 66 65 65 65 65 64 65 65 65
92 91 90 92 93 93 91 91 91 93 95 94 93 92 92 91 92 92 92 91 88 87 86 89 90 93 92 93 96 97 97 97 95 96 96 97 97 99 101 99 102 81 71 71 70 69 68 68 67 67 70 70 68 67 65 65 65 64 63 64 64 63 64 63 63 64 63 64 64 62 62 64 63 64
92 91 92 92 93 92 91 92 92 93 92 93 93 92 92 91 92 92 92 90 90 87 86 87 90 91 92 93 93 95 94 95 95 95 94 96 95 95 99 101 103 79 68 70 70 70 68 68 67 68 69 68 67 66 65 65 65 64 63 63 62 64 63 63 62 62 62 62 63 60 60 61 62 63
93 93 92 93 93 93 92 92 92 91 92 93 93 92 91 92 92 91 91 90 89 88 87 87 88 89 90 90 92 94 94 93 92 93 93 95 95 94 94 98 101 103 93 92 84 71 69 68 65 68 69 68 66 66 66 65 64 63 62 59 61 62 62 61 62 62 61 61 60 60 59 59 61 63
96 95 95 93 94 93 93 93 93 92 92 94 93 91 91 92 91 91 90 90 89 88 87 88 89 89 91 91 89 92 94 93 92 89 89 89 94 94 93 92 97 99 101 94 84 85 83 78 75 66 65 67 66 67 66 65 64 63 60 60 59 60 59 60 61 61 60 60 59 58 58 58 60 62
97 97 97 98 96 95 94 93 94 93 93 93 92 93 92 92 90 90 90 90 89 88 89 88 89 91 89 91 93 94 92 90 89 91 90 88 89 91 92 93 92 94 93 93 100 84 78 77 75 65 65 67 67 67 67 66 67 64 63 61 62 63 60 60 60 60 59 58 58 57 57 57 59 61
96 97 99 99 99 96 93 91 90 91 90 93 91 91 91 91 90 89 89 89 88 88 88 87 89 89 88 89 89 90 89 88 88 91 93 90 90 90 91 92 95 94 93 94 96 97 98 95 87 84 83 80 72 71 70 73 67 66 62 62 64 64 62 60 60 61 59 59 58 57 57 57 59 60
97 98 99 101 96 94 92 89 86 84 84 84 91 92 92 90 89 88 88 87 88 87 86 87 88 87 88 90 90 90 92 93 93 92 91 88 90 90 90 90 92 94 94 93 90 93 96 97 95 92 88 90 78 84 78 84 76 68 64 63 64 63 63 61 60 60 60 59 58 58 56 57 59 58
94 97 97 98 97 93 91 90 82 81 80 81 80 80 81 84 88 89 88 87 88 87 87 88 88 88 87 90 91 91 93 94 93 92 91 91 89 86 84 83 89 94 92 89 87 88 92 93 90 91 94 96 86 88 87 77 71 66 65 64 63 63 62 63 63 62 60 59 58 58 57 57 57 57
94 95 97 99 101 99 97 96 89 83 79 77 78 77 77 78 77 78 84 86 86 87 87 87 88 89 88 89 91 93 94 92 93 92 91 89 88 86 85 85 84 91 94 89 86 86 91 92 92 91 93 95 95 94 75 68 68 65 65 64 64 63 63 63 63 62 62 61 60 60 59 58 58 57
92 92 93 95 97 102 94 94 96 91 87 77 73 76 76 76 76 73 71 73 83 88 86 87 87 88 89 88 89 92 92 92 89 89 88 87 87 87 85 86 88 90 93 89 87 85 90 92 90 91 93 95 91 76 70 68 66 66 64 64 64 64 62 62 62 62 61 60 60 59 58 57 57 56
93 92 92 92 93 95 95 94 94 94 92 89 85 83 84 85 83 74 70 70 70 76 87 87 85 88 90 87 89 91 92 89 87 87 87 87 87 86 86 88 89 90 94 88 87 85 88 91 92 90 94 97 88 83 70 64 65 65 65 64 64 62 62 61 62 61 60 60 59 58 57 56 55 55
93 93 93 93 92 92 92 94 93 94 92 91 90 88 87 88 89 89 89 87 87 85 88 88 88 88 89 90 90 91 91 91 90 90 88 88 88 87 89 88 89 89 92 90 88 82 87 92 90 91 93 96 91 86 65 64 65 65 63 64 63 62 61 61 61 60 60 60 59 58 57 56 55 54
91 92 92 91 91 91 91 87 80 85 92 92 91 89 90 90 92 93 89 81 83 90 91 90 90 92 93 85 92 92 94 92 91 91 92 91 88 86 84 83 88 89 94 94 90 86 86 91 91 91 95 95 92 86 81 65 64 63 63 64 63 61 60 60 61 60 60 60 59 58 57 55 54 53
92 93 92 90 92 92 90 84 72 72 81 91 90 90 91 93 95 94 97 78 73 75 73 74 75 75 74 73 69 64 65 82 88 90 88 86 88 85 82 84 86 87 92 95 94 93 87 90 90 90 93 93 91 92 85 77 64 62 62 62 61 61 60 60 59 59 59 59 58 58 58 56 55 55
90 91 86 89 91 91 91 78 69 68 78 87 88 90 90 90 91 92 98 101 89 69 70 70 70 71 72 72 70 69 67 66 76 87 83 88 89 85 85 83 85 88 90 92 97 90 91 92 91 89 91 90 93 93 88 78 71 62 60 59 60 60 60 59 59 59 59 59 59 59 56 56 55 71
90 90 87 83 84 87 86 73 68 66 77 88 89 88 89 88 89 92 96 94 95 89 84 84 82 81 78 79 83 84 71 70 77 86 87 90 87 85 85 85 86 85 88 93 95 87 89 89 91 89 87 85 91 95 84 78 75 75 74 72 68 60 60 60 59 57 58 59 59 59 57 55 57 78
89 89 90 85 71 69 69 69 64 62 65 85 88 89 89 88 87 94 93 92 95 93 91 89 88 87 89 89 89 89 89 86 84 86 88 89 88 86 85 86 86 85 87 93 98 91 93 92 90 92 90 85 84 90 84 81 78 78 79 76 78 64 61 62 61 57 56 58 56 56 55 55 55 77
89 90 90 93 77 65 65 64 62 59 59 69 87 87 88 89 89 87 93 92 89 92 91 91 90 90 89 89 91 92 90 90 90 89 87 89 89 87 86 87 88 89 92 95 88 91 88 91 88 90 89 88 89 88 90 88 80 81 81 81 80 75 72 73 73 75 61 55 54 53 53 56 54 64
89 90 92 91 81 65 63 62 62 58 58 59 78 86 73 72 72 84 89 92 93 93 92 92 91 92 92 92 92 93 94 95 92 93 92 89 89 91 91 90 88 88 90 94 81 90 88 87 88 87 87 87 87 89 86 87 85 82 84 83 83 77 77 78 79 79 77 76 74 63 64 54 56 51
90 92 92 91 83 63 60 59 60 60 58 60 72 67 66 65 65 75 88 88 88 88 89 89 89 89 91 91 91 92 93 95 94 96 95 92 90 89 91 92 94 92 94 94 94 93 89 87 89 86 85 86 84 85 85 85 88 86 83 85 86 80 81 84 82 82 81 79 80 63 58 54 55 57
94 91 93 89 76 60 55 56 58 59 60 71 63 60 62 63 68 81 84 84 85 84 85 84 85 86 89 91 91 91 92 95 92 93 94 95 96 91 91 91 90 92 92 93 93 92 90 87 88 88 86 85 83 82 82 87 88 86 83 86 86 88 86 85 86 85 84 83 82 77 78 74 70 66
93 82 71 64 66 60 55 55 57 59 59 58 61 61 61 66 79 81 83 83 84 82 82 83 84 86 87 89 90 91 91 92 92 91 94 96 96 97 95 92 90 90 92 92 92 92 90 89 88 88 86 86 84 84 84 83 85 84 83 84 82 84 86 86 86 85 83 83 83 82 82 82 78 78
70 64 63 62 63 61 60 68 73 76 76 62 59 60 64 76 80 82 83 82 81 81 83 84 84 86 89 90 90 90 90 89 89 90 90 90 91 92 91 90 89 92 95 94 93 92 91 89 88 87 86 85 85 84 84 84 83 85 83 83 84 83 83 86 85 85 82 81 82 82 83 82 82 80
81 82 81 82 73 73 68 68 71 73 75 74 70 71 74 78 81 82 82 83 82 81 83 84 86 88 89 90 89 88 88 87 87 89 86 89 89 89 89 87 87 88 91 93 94 94 92 90 88 87 84 84 85 84 85 86 82 83 84 83 82 80 82 83 84 84 83 82 83 82 82 82 81 80
84 84 78 76 84 84 83 81 83 84 85 84 81 81 81 80 81 81 79 81 84 84 85 86 86 87 87 88 90 90 90 89 88 88 87 87 87 89 88 86 85 87 88 90 91 90 88 89 88 87 85 84 82 83 85 83 82 82 82 83 82 85 87 84 83 84 83 82 81 80 79 81 81 80
77 76 75 77 79 83 83 84 85 87 87 86 86 86 85 85 84 83 84 83 83 83 83 84 84 85 87 87 89 89 90 88 89 88 87 86 86 87 87 86 87 86 86 87 88 89 89 88 88 87 86 86 86 84 82 80 82 84 82 82 81 82 85 87 84 82 82 79 78 80 77 80 82 82
71 71 73 76 78 80 82 84 85 86 88 87 87 88 80 86 87 86 84 84 85 84 83 84 84 85 86 87 88 88 88 88 90 88 81 85 86 84 85 84 85 87 85 87 88 89 89 88 87 86 86 85 86 85 83 82 81 82 83 82 81 82 84 85 83 82 80 79 77 78 79 78 81 84
69 70 73 75 77 78 81 83 85 85 86 86 87 88 89 88 86 84 87 86 85 85 85 84 85 85 86 86 87 87 87 87 89 90 88 88 86 85 85 84 85 85 86 86 87 87 88 86 84 82 81 81 80 82 81 83 82 82 83 82 82 82 83 84 84 83 79 78 80 77 79 80 79 82
70 71 74 75 77 79 79 81 83 85 87 87 87 89 90 90 89 87 87 86 88 87 86 86 84 85 86 86 86 87 87 86 88 88 88 88 88 86 86 85 84 85 86 86 86 88 88 87 85 81 78 77 76 76 79 77 78 84 81 81 82 82 83 83 81 82 80 79 79 78 77 79 81 81
70 72 73 75 77 79 81 83 85 86 87 87 88 89 90 90 91 91 88 86 87 86 88 88 87 86 86 86 86 84 86 86 87 87 87 88 88 88 86 85 83 84 85 86 87 87 87 85 84 82 79 77 74 73 76 83 72 74 84 82 82 83 81 81 80 78 80 79 79 79 78 79 81 82
69 71 74 76 78 80 82 84 85 85 87 87 88 88 89 91 91 89 90 88 86 86 87 88 87 87 88 87 86 87 87 88 88 87 87 88 87 87 87 87 85 85 85 85 86 85 86 84 82 81 80 77 77 76 77 82 82 74 70 80 82 83 82 80 79 78 77 80 79 80 81 80 81 84
70 71 73 75 77 80 81 83 85 85 87 87 87 88 88 89 91 90 90 90 88 88 88 88 87 87 87 88 87 87 86 87 87 87 87 88 88 87 86 86 85 86 85 84 85 85 84 83 82 82 81 79 78 80 82 82 81 85 75 64 79 82 81 81 80 80 79 77 78 80 82 81 73 64
70 71 73 74 77 80 82 84 85 86 87 87 88 90 90 89 89 89 90 88 88 88 89 88 86 84 88 88 89 90 89 87 86 88 87 88 87 86 86 86 86 86 84 83 82 83 83 82 82 83 83 83 84 86 86 84 84 85 83 70 61 74 83 82 80 80 78 79 78 78 79 78 77 79
70 71 73 75 77 80 81 83 82 82 80 80 84 81 89 89 89 90 90 90 88 89 89 89 88 87 88 88 88 89 88 88 88 88 87 87 84 84 82 78 83 84 83 81 81 82 83 85 84 75 82 85 84 81 78 78 77 79 80 79 61 59 65 71 82 81 78 78 77 76 76 77 78 78
71 72 74 76 75 76 76 76 75 76 77 79 79 79 81 82 84 80 86 86 87 87 89 89 88 87 87 88 88 87 87 86 87 87 88 89 88 85 80 81 83 83 82 81 81 83 85 87 86 82 84 83 79 75 74 74 75 77 78 81 81 63 60 60 61 67 77 78 79 76 75 77 78 77
71 72 73 73 73 73 73 74 75 75 75 74 73 74 76 77 79 82 85 87 87 88 89 89 89 89 88 89 85 78 77 79 84 86 87 87 87 86 84 83 83 83 83 83 84 85 85 85 84 84 83 81 78 75 73 74 75 76 78 79 81 81 76 64 60 58 58 55 57 67 76 78 78 74
73 72 72 72 72 73 74 75 74 74 73 74 75 75 74 74 75 76 78 79 81 84 87 88 87 87 87 83 77 80 82 83 85 85 84 84 84 84 84 84 81 82 83 82 83 84 85 82 82 81 79 78 76 73 72 73 74 75 76 77 79 80 79 80 79 66 61 62 60 53 53 58 62 64
63 65 68 71 72 73 74 74 73 73 73 73 74 73 72 73 75 80 83 82 82 82 82 84 84 86 84 77 79 80 82 76 80 84 84 84 84 82 82 83 82 81 80 81 81 81 82 80 80 79 78 76 74 72 72 71 71 70 72 73 73 76 79 79 78 76 75 75 65 55 56 57 59 57
MSLP
1020.22 1020.30 1020.46 1020.66 1020.62 1020.38 1020.10 1020.10 1019.94 1020.26 1020.46 1020.30 1020.42 1020.50 1021.50 1022.26 1023.26 1023.58 1023.42 1022.82 1021.74 1020.62 1019.50 1020.70 1020.46 1019.34 1019.30 1019.34 1018.74 1018.70 1018.54 1018.66 1018.70 1018.70 1018.50 1018.46 1018.46 1018.86 1018.90 1018.98 1019.02 1019.02 1019.02 1019.02 1018.98 1018.94 1018.86 1018.82 1018.78 1018.78 1018.74 1018.70 1018.66 1018.62 1018.62 1018.62 1018.62 1018.58 1018.54 1018.46 1018.42 1018.38 1018.34 1018.30 1018.22 1018.14 1018.02 1017.90 1017.74 1017.58 1017.42 1017.26 1017.10 1016.94
1020.18 1020.02 1020.06 1020.26 1020.46 1020.18 1020.14 1020.18 1019.94 1020.26 1020.62 1020.58 1020.58 1020.58 1020.82 1021.26 1022.62 1023.10 1023.86 1023.46 1021.38 1021.10 1019.90 1019.26 1020.38 1019.54 1019.42 1018.82 1018.62 1018.26 1018.42 1018.62 1018.58 1018.58 1018.50 1018.38 1018.26 1018.54 1018.70 1018.82 1018.90 1018.90 1018.82 1018.82 1018.82 1018.82 1018.78 1018.82 1018.82 1018.78 1018.74 1018.74 1018.66 1018.62 1018.62 1018.62 1018.62 1018.58 1018.54 1018.50 1018.46 1018.42 1018.38 1018.34 1018.22 1018.14 1018.02 1017.86 1017.70 1017.54 1017.38 1017.22 1017.06 1016.94
1020.14 1020.30 1020.46 1020.22 1020.34 1020.06 1020.06 1019.90 1019.78 1020.06 1020.46 1020.62 1020.54 1020.50 1020.62 1021.06 1021.42 1022.34 1022.90 1023.82 1021.86 1020.78 1021.30 1019.94 1019.18 1019.34 1019.06 1018.86 1018.82 1018.50 1018.42 1018.46 1018.42 1018.50 1018.46 1018.26 1018.26 1018.30 1018.38 1018.62 1018.74 1018.78 1018.70 1018.62 1018.66 1018.66 1018.74 1018.78 1018.78 1018.74 1018.74 1018.70 1018.66 1018.62 1018.58 1018.62 1018.62 1018.62 1018.58 1018.54 1018.54 1018.50 1018.42 1018.34 1018.26 1018.14 1018.02 1017.86 1017.66 1017.50 1017.34 1017.22 1017.06 1016.90
1020.10 1020.34 1020.58 1020.46 1020.46 1020.14 1020.14 1020.14 1020.02 1020.10 1020.22 1020.26 1020.50 1020.58 1020.82 1021.02 1021.10 1021.42 1022.30 1023.10 1023.06 1020.98 1020.62 1020.06 1019.54 1018.74 1018.94 1018.82 1019.26 1019.14 1018.78 1018.22 1018.38 1018.42 1018.38 1018.18 1018.14 1017.86 1017.58 1018.18 1018.42 1018.62 1018.58 1018.50 1018.54 1018.58 1018.62 1018.74 1018.74 1018.74 1018.70 1018.66 1018.62 1018.58 1018.58 1018.62 1018.62 1018.62 1018.62 1018.58 1018.58 1018.54 1018.46 1018.38 1018.22 1018.14 1018.02 1017.82 1017.66 1017.46 1017.34 1017.22 1017.02 1016.90
1020.06 1020.38 1020.54 1020.46 1020.30 1020.10 1020.38 1020.30 1020.10 1020.02 1020.14 1020.30 1020.42 1020.42 1020.62 1020.94 1020.74 1021.18 1021.94 1022.66 1022.58 1021.26 1019.90 1020.02 1019.78 1018.90 1018.90 1019.22 1018.98 1019.34 1018.98 1018.62 1018.30 1018.18 1018.02 1017.94 1017.90 1017.66 1017.50 1017.90 1018.30 1018.42 1018.42 1018.38 1018.42 1018.46 1018.58 1018.66 1018.70 1018.70 1018.66 1018.62 1018.58 1018.58 1018.58 1018.62 1018.66 1018.62 1018.58 1018.58 1018.58 1018.54 1018.42 1018.34 1018.22 1018.10 1017.98 1017.82 1017.66 1017.50 1017.34 1017.18 1017.02 1016.90
1020.06 1020.18 1020.54 1020.46 1020.26 1020.10 1020.38 1020.22 1020.22 1019.98 1019.86 1020.02 1020.30 1020.46 1020.62 1020.70 1020.66 1020.38 1021.42 1021.94 1022.26 1022.42 1020.78 1020.38 1019.30 1019.42 1018.78 1019.78 1018.74 1019.30 1019.38 1019.06 1018.66 1018.66 1018.38 1017.82 1017.50 1017.54 1017.46 1017.58 1018.02 1018.22 1018.22 1018.22 1018.26 1018.30 1018.46 1018.58 1018.62 1018.62 1018.62 1018.58 1018.54 1018.58 1018.62 1018.66 1018.62 1018.58 1018.54 1018.54 1018.50 1018.46 1018.38 1018.30 1018.18 1018.06 1017.98 1017.86 1017.66 1017.50 1017.34 1017.18 1017.02 1016.90
1019.94 1020.18 1020.34 1020.34 1020.10 1019.82 1020.22 1020.30 1020.18 1019.82 1019.90 1019.74 1019.98 1020.10 1019.94 1020.22 1020.14 1020.06 1020.42 1021.42 1022.18 1022.06 1021.62 1020.50 1020.42 1019.82 1019.38 1019.70 1019.46 1018.94 1018.74 1018.62 1018.58 1018.86 1018.54 1018.10 1017.62 1017.42 1017.38 1017.34 1017.18 1017.90 1017.90 1017.98 1018.02 1018.06 1018.26 1018.42 1018.50 1018.50 1018.50 1018.46 1018.50 1018.54 1018.58 1018.58 1018.54 1018.50 1018.50 1018.46 1018.42 1018.38 1018.34 1018.26 1018.14 1018.06 1017.98 1017.86 1017.70 1017.50 1017.34 1017.18 1017.06 1016.94
1019.82 1019.98 1020.18 1020.06 1019.90 1019.90 1020.18 1020.22 1020.14 1019.90 1019.78 1019.94 1020.10 1020.26 1020.26 1020.30 1020.38 1020.18 1020.22 1020.46 1021.26 1021.50 1021.90 1020.94 1020.70 1019.98 1020.06 1019.62 1018.94 1018.58 1018.38 1018.58 1018.54 1018.46 1018.26 1017.90 1017.90 1017.58 1017.26 1017.22 1016.86 1017.42 1017.62 1017.70 1017.70 1017.74 1018.02 1018.22 1018.30 1018.30 1018.30 1018.34 1018.38 1018.42 1018.42 1018.42 1018.42 1018.46 1018.50 1018.46 1018.42 1018.38 1018.34 1018.26 1018.22 1018.10 1018.02 1017.86 1017.70 1017.54 1017.38 1017.26 1017.14 1017.06
1019.50 1019.62 1019.78 1019.70 1019.70 1019.74 1020.10 1019.98 1020.06 1019.86 1019.98 1019.86 1019.94 1020.18 1020.06 1020.18 1020.06 1020.02 1020.10 1020.30 1020.50 1021.18 1021.58 1021.10 1020.22 1019.82 1019.70 1019.30 1019.06 1018.70 1019.10 1018.74 1018.46 1018.22 1018.34 1018.22 1018.02 1017.78 1017.38 1017.06 1016.54 1016.90 1017.42 1017.62 1017.46 1017.54 1017.78 1017.94 1018.02 1018.02 1018.02 1018.10 1018.18 1018.22 1018.22 1018.22 1018.30 1018.42 1018.50 1018.50 1018.50 1018.46 1018.42 1018.34 1018.22 1018.14 1018.02 1017.90 1017.74 1017.62 1017.50 1017.38 1017.26 1017.14
1019.14 1019.30 1019.38 1019.34 1019.34 1019.46 1019.78 1019.78 1019.66 1019.66 1019.78 1019.70 1019.82 1020.02 1019.94 1019.78 1019.78 1019.98 1020.06 1020.14 1020.38 1020.62 1020.82 1020.86 1020.82 1020.02 1020.10 1019.74 1019.30 1018.74 1018.70 1019.14 1019.22 1018.86 1018.42 1018.02 1017.82 1017.90 1017.94 1017.42 1016.86 1016.62 1017.06 1017.26 1017.38 1017.66 1017.78 1017.78 1017.78 1017.74 1017.74 1017.82 1017.90 1017.94 1017.98 1018.06 1018.18 1018.30 1018.46 1018.54 1018.58 1018.54 1018.46 1018.34 1018.26 1018.14 1018.06 1017.98 1017.86 1017.74 1017.62 1017.50 1017.38 1017.18
1018.58 1018.70 1018.78 1018.90 1018.94 1019.10 1019.18 1019.30 1019.34 1019.34 1019.50 1019.50 1019.58 1019.58 1019.70 1019.66 1019.86 1020.02 1020.10 1020.14 1020.38 1020.54 1020.74 1020.54 1020.26 1020.22 1019.46 1019.42 1019.90 1018.82 1018.34 1018.58 1018.90 1019.50 1019.42 1019.22 1018.10 1017.78 1017.90 1018.14 1017.26 1016.78 1016.58 1016.30 1016.42 1016.54 1016.82 1017.06 1017.42 1017.50 1017.50 1017.50 1017.58 1017.66 1017.78 1017.90 1018.06 1018.18 1018.34 1018.50 1018.58 1018.50 1018.42 1018.34 1018.26 1018.18 1018.10 1018.06 1017.98 1017.90 1017.74 1017.58 1017.38 1017.18
1018.06 1018.06 1018.10 1018.14 1018.18 1018.42 1018.54 1018.74 1018.78 1018.74 1019.06 1019.02 1019.34 1019.10 1019.22 1019.42 1019.74 1020.02 1019.94 1020.02 1020.14 1020.34 1020.38 1020.42 1020.26 1019.74 1019.66 1019.30 1018.78 1018.46 1018.62 1019.18 1019.18 1018.82 1019.10 1019.58 1019.06 1018.58 1017.94 1017.70 1017.90 1017.30 1017.18 1017.26 1016.46 1016.26 1016.54 1016.82 1017.06 1017.26 1017.34 1017.34 1017.34 1017.42 1017.54 1017.74 1017.90 1018.02 1018.18 1018.34 1018.42 1018.38 1018.30 1018.26 1018.18 1018.14 1018.10 1018.06 1018.06 1017.94 1017.78 1017.58 1017.34 1017.14
1017.82 1017.70 1017.54 1017.46 1017.42 1017.46 1017.74 1017.94 1018.14 1018.22 1018.34 1018.74 1019.10 1019.02 1018.98 1019.22 1019.54 1019.82 1019.86 1019.94 1020.06 1020.22 1020.30 1020.34 1019.86 1019.94 1019.94 1019.70 1019.66 1019.54 1019.50 1019.62 1019.54 1018.58 1018.34 1018.86 1018.58 1018.34 1018.22 1017.62 1016.94 1016.98 1017.30 1017.10 1016.86 1016.58 1016.22 1016.50 1016.90 1017.06 1017.18 1016.98 1017.14 1017.26 1017.30 1017.34 1017.70 1017.82 1017.94 1018.14 1018.22 1018.22 1018.22 1018.18 1018.18 1018.14 1018.06 1018.02 1017.98 1017.90 1017.74 1017.54 1017.30 1017.10
1017.54 1017.38 1017.26 1016.94 1016.98 1017.14 1017.30 1017.54 1017.78 1017.98 1018.14 1018.30 1018.42 1018.58 1018.70 1019.06 1019.42 1019.66 1019.90 1020.02 1019.98 1020.10 1020.38 1020.22 1020.02 1020.14 1019.98 1019.50 1019.14 1019.14 1018.66 1018.18 1018.02 1018.30 1018.38 1019.06 1018.58 1018.30 1018.46 1018.10 1017.50 1016.74 1016.90 1017.26 1017.54 1016.98 1016.18 1016.30 1016.22 1016.30 1016.58 1016.10 1016.54 1016.66 1016.98 1016.82 1017.02 1017.46 1017.70 1017.86 1017.98 1018.02 1018.10 1018.14 1018.14 1018.06 1018.02 1017.94 1017.90 1017.78 1017.66 1017.50 1017.34 1017.22
1017.58 1017.18 1016.98 1016.86 1016.78 1016.98 1017.18 1017.34 1017.50 1017.66 1017.82 1017.94 1018.14 1018.30 1018.38 1018.54 1018.98 1019.38 1019.66 1019.74 1019.62 1019.82 1019.90 1019.62 1019.62 1019.66 1019.70 1019.18 1018.62 1018.66 1018.34 1018.02 1018.18 1018.26 1018.14 1018.46 1018.66 1019.22 1019.66 1019.98 1018.18 1016.62 1016.90 1017.42 1017.82 1017.58 1016.38 1016.18 1016.78 1016.30 1015.94 1015.54 1015.94 1015.82 1015.90 1016.06 1016.54 1017.02 1017.30 1017.54 1017.70 1017.78 1017.94 1018.02 1018.02 1017.98 1017.94 1017.86 1017.74 1017.66 1017.54 1017.42 1017.34 1017.22
1017.22 1017.14 1016.90 1016.62 1016.38 1016.38 1016.54 1016.70 1017.10 1017.34 1017.50 1017.66 1017.82 1017.98 1018.14 1018.26 1018.38 1018.54 1019.06 1019.46 1019.50 1019.34 1019.54 1019.54 1019.26 1019.10 1019.10 1018.82 1018.42 1018.30 1018.10 1018.14 1017.98 1017.98 1018.14 1018.42 1018.78 1019.14 1019.34 1019.18 1019.38 1017.30 1016.42 1017.46 1017.94 1017.78 1016.46 1015.98 1016.22 1016.26 1015.70 1015.26 1015.02 1014.94 1015.26 1015.78 1016.22 1016.62 1016.90 1017.14 1017.30 1017.46 1017.66 1017.78 1017.86 1017.86 1017.82 1017.78 1017.62 1017.50 1017.38 1017.30 1017.18 1017.10
1016.82 1016.78 1016.82 1016.66 1016.30 1015.90 1015.94 1016.18 1016.34 1016.78 1017.22 1017.42 1017.54 1017.70 1017.86 1018.06 1018.14 1018.30 1018.38 1018.50 1018.70 1018.58 1018.94 1019.02 1018.90 1018.70 1018.54 1018.70 1018.34 1017.82 1017.90 1017.66 1018.50 1018.38 1018.62 1018.50 1018.54 1018.54 1018.82 1018.58 1018.14 1017.26 1016.26 1017.02 1017.66 1017.86 1016.66 1016.14 1016.30 1016.22 1015.38 1014.82 1014.82 1015.34 1015.38 1015.58 1015.94 1016.30 1016.62 1016.74 1016.86 1017.02 1017.26 1017.46 1017.58 1017.66 1017.66 1017.66 1017.54 1017.38 1017.26 1017.18 1016.98 1016.86
1016.26 1016.42 1016.58 1016.62 1016.54 1016.14 1016.02 1015.98 1016.14 1016.30 1016.58 1017.02 1017.42 1017.70 1017.82 1017.82 1017.74 1017.90 1017.98 1018.02 1018.18 1018.30 1018.30 1018.34 1018.62 1017.90 1017.66 1018.14 1017.74 1017.26 1017.18 1017.94 1018.42 1018.46 1018.58 1018.22 1018.34 1018.34 1018.34 1017.54 1017.26 1016.58 1016.06 1017.14 1017.42 1017.74 1016.86 1015.98 1015.94 1015.98 1015.06 1014.30 1014.74 1014.94 1015.30 1015.54 1015.74 1015.98 1016.18 1016.38 1016.50 1016.70 1016.90 1017.10 1017.26 1017.38 1017.42 1017.42 1017.34 1017.26 1017.14 1017.02 1016.86 1016.66
1015.78 1015.82 1015.94 1016.10 1016.18 1016.06 1016.02 1015.86 1015.90 1016.14 1016.34 1016.58 1016.82 1017.14 1017.26 1017.18 1016.98 1016.90 1016.98 1017.22 1017.38 1017.54 1017.50 1017.46 1017.34 1017.14 1016.94 1016.90 1016.82 1016.78 1016.74 1017.02 1017.18 1017.30 1017.62 1017.62 1017.62 1017.46 1017.02 1017.02 1016.74 1016.54 1015.82 1016.14 1016.94 1018.30 1016.82 1015.58 1016.02 1015.74 1015.02 1014.30 1014.58 1014.78 1015.42 1015.38 1015.54 1015.74 1015.98 1016.18 1016.34 1016.42 1016.58 1016.78 1016.98 1017.10 1017.14 1017.14 1017.10 1017.06 1016.94 1016.82 1016.70 1016.54
1015.38 1015.46 1015.62 1015.74 1015.82 1015.78 1015.78 1015.66 1015.70 1015.82 1015.90 1016.26 1016.62 1016.78 1016.70 1016.54 1016.30 1016.02 1015.58 1015.62 1015.78 1015.90 1016.10 1016.22 1016.22 1016.10 1015.98 1016.02 1016.14 1016.14 1016.18 1016.26 1016.34 1016.46 1016.46 1016.58 1017.02 1017.62 1018.10 1018.30 1017.22 1016.98 1015.54 1015.22 1016.10 1017.06 1016.82 1015.50 1015.82 1015.46 1014.50 1014.26 1014.58 1014.66 1015.06 1015.30 1015.34 1015.66 1015.90 1016.10 1016.26 1016.38 1016.46 1016.62 1016.78 1016.86 1016.90 1016.86 1016.86 1016.82 1016.70 1016.58 1016.38 1016.26
1015.10 1015.10 1015.18 1015.38 1015.46 1015.42 1015.46 1015.34 1015.54 1015.70 1015.90 1016.18 1016.38 1016.46 1016.42 1016.10 1015.82 1015.54 1014.90 1014.90 1015.14 1015.34 1015.46 1015.46 1015.54 1015.62 1015.70 1015.78 1015.94 1016.10 1016.10 1016.14 1016.06 1016.46 1017.18 1017.58 1017.14 1017.86 1018.42 1017.94 1017.50 1017.02 1015.82 1015.06 1014.86 1015.42 1016.34 1015.46 1015.42 1015.38 1014.70 1014.46 1014.54 1014.38 1014.74 1015.14 1015.54 1015.62 1015.90 1016.14 1016.34 1016.46 1016.50 1016.54 1016.66 1016.66 1016.62 1016.58 1016.58 1016.54 1016.46 1016.34 1016.14 1015.74
1014.82 1014.74 1014.82 1014.94 1015.10 1015.22 1015.06 1014.98 1015.30 1015.54 1015.82 1016.18 1016.22 1016.30 1016.30 1016.30 1016.06 1015.58 1014.78 1014.34 1014.46 1014.54 1014.66 1014.86 1015.06 1015.22 1015.34 1015.50 1015.78 1015.98 1016.06 1016.14 1016.18 1016.78 1017.78 1016.98 1016.98 1017.66 1017.66 1017.98 1017.34 1016.54 1015.78 1015.18 1014.34 1015.54 1015.62 1014.86 1014.66 1015.22 1014.62 1014.42 1014.14 1013.90 1014.02 1014.74 1015.42 1015.94 1016.10 1016.30 1016.42 1016.58 1016.54 1016.54 1016.54 1016.50 1016.42 1016.30 1016.26 1016.22 1016.26 1016.14 1015.94 1015.30
1014.58 1014.46 1014.42 1014.58 1014.70 1014.74 1014.70 1014.82 1015.06 1015.30 1015.54 1015.74 1015.90 1016.02 1016.18 1016.18 1015.98 1015.26 1014.74 1014.78 1014.62 1014.90 1015.46 1015.46 1015.42 1015.58 1015.50 1015.58 1015.62 1015.54 1015.66 1015.82 1015.98 1015.98 1016.22 1016.22 1016.78 1017.26 1017.02 1016.90 1016.86 1017.14 1016.18 1014.62 1013.78 1015.70 1015.46 1015.26 1014.66 1014.94 1015.66 1016.02 1014.34 1013.26 1014.10 1014.78 1015.18 1015.46 1015.70 1016.06 1016.30 1016.42 1016.42 1016.42 1016.46 1016.42 1016.26 1016.06 1015.98 1015.94 1015.94 1015.90 1015.74 1015.18
1014.34 1014.18 1014.10 1014.02 1014.26 1014.42 1014.58 1014.66 1014.90 1015.10 1015.18 1015.26 1015.30 1015.42 1015.70 1015.74 1015.74 1014.62 1014.58 1014.38 1014.34 1014.30 1014.54 1014.78 1014.78 1014.94 1014.82 1014.90 1015.02 1015.06 1015.10 1015.22 1015.34 1015.46 1015.46 1015.62 1015.90 1016.30 1016.42 1016.34 1016.42 1016.74 1015.94 1014.14 1013.34 1014.66 1014.34 1014.26 1014.78 1013.98 1014.66 1015.86 1016.26 1014.34 1014.18 1014.54 1014.66 1014.94 1015.02 1015.38 1015.62 1015.94 1016.22 1016.34 1016.38 1016.30 1016.10 1015.90 1015.78 1015.70 1015.66 1015.62 1015.58 1015.22
1013.98 1013.86 1013.70 1013.42 1013.46 1013.86 1014.14 1014.38 1014.54 1014.78 1014.94 1014.86 1014.86 1014.94 1015.02 1014.70 1014.34 1014.18 1014.38 1014.22 1014.14 1014.30 1014.22 1014.22 1014.30 1014.54 1014.66 1014.70 1014.54 1014.46 1014.50 1014.50 1014.42 1014.50 1014.62 1014.66 1014.74 1015.22 1015.70 1015.86 1015.70 1015.46 1014.54 1013.46 1013.06 1013.90 1014.86 1014.30 1014.70 1014.34 1014.54 1014.62 1014.58 1014.70 1013.78 1013.74 1014.30 1014.46 1014.46 1014.54 1014.86 1015.30 1015.70 1015.86 1015.86 1015.82 1015.82 1015.82 1015.74 1015.62 1015.50 1015.38 1015.34 1015.26
1013.34 1013.14 1013.02 1013.02 1012.94 1013.30 1013.66 1013.94 1014.18 1014.38 1014.62 1014.78 1014.90 1014.38 1014.10 1014.10 1014.34 1014.42 1014.26 1014.14 1014.02 1013.90 1013.94 1014.06 1014.14 1014.06 1014.14 1014.22 1014.14 1013.98 1013.74 1013.58 1013.58 1013.58 1013.62 1013.78 1013.86 1013.86 1013.98 1014.46 1015.02 1015.18 1014.54 1012.86 1012.74 1013.30 1014.10 1014.54 1014.30 1014.66 1014.62 1014.94 1014.70 1014.18 1014.50 1013.98 1013.74 1013.98 1013.86 1013.98 1014.10 1014.66 1014.90 1015.18 1015.34 1015.22 1015.22 1015.26 1015.38 1015.42 1015.26 1015.22 1015.06 1015.02
1012.86 1012.46 1012.46 1012.34 1012.42 1012.90 1013.22 1013.54 1013.82 1014.10 1014.38 1014.74 1014.58 1014.10 1014.06 1014.22 1014.30 1014.50 1014.42 1014.38 1014.46 1014.46 1014.26 1014.10 1014.10 1013.98 1013.90 1013.94 1013.86 1013.62 1013.46 1013.02 1012.70 1012.62 1012.46 1012.66 1013.06 1013.26 1013.18 1013.02 1013.06 1013.38 1013.06 1012.70 1012.50 1012.82 1013.42 1014.06 1013.58 1014.34 1014.82 1014.54 1014.94 1014.58 1014.42 1014.62 1013.82 1013.26 1013.82 1013.70 1013.54 1013.98 1014.10 1014.18 1014.62 1014.58 1014.58 1014.70 1014.66 1014.86 1015.06 1015.10 1014.98 1014.86
1012.14 1012.22 1012.10 1012.06 1012.18 1012.62 1012.94 1013.22 1013.54 1013.82 1014.18 1014.22 1014.02 1014.14 1014.18 1014.18 1014.38 1014.58 1014.54 1014.62 1014.62 1014.66 1014.62 1014.58 1014.38 1014.14 1013.66 1013.42 1013.34 1013.14 1012.78 1012.54 1012.38 1012.30 1012.18 1012.10 1012.06 1012.50 1012.66 1012.58 1012.66 1012.50 1012.50 1012.46 1012.42 1012.50 1012.86 1013.54 1013.62 1013.42 1013.74 1014.38 1014.94 1015.14 1015.06 1013.54 1013.22 1013.46 1013.90 1013.22 1013.10 1013.02 1013.38 1013.66 1013.86 1013.98 1013.98 1013.98 1014.14 1014.46 1014.66 1014.90 1014.86 1014.90
1011.86 1011.78 1012.02 1012.22 1012.30 1012.42 1012.66 1012.90 1013.22 1013.62 1013.78 1013.78 1013.74 1013.86 1014.02 1014.30 1014.50 1014.46 1014.46 1014.42 1014.42 1014.62 1014.54 1014.34 1014.06 1013.74 1013.34 1012.98 1012.62 1012.22 1012.06 1011.94 1011.90 1012.14 1012.02 1011.78 1011.70 1011.50 1011.58 1011.86 1012.02 1012.14 1012.22 1012.10 1012.14 1012.18 1012.42 1012.74 1013.06 1012.98 1013.26 1013.50 1014.14 1014.06 1014.10 1014.18 1013.62 1013.62 1013.54 1013.70 1014.02 1013.38 1013.18 1013.34 1013.50 1013.86 1014.02 1014.06 1013.98 1013.78 1013.74 1013.78 1014.06 1013.98
1011.90 1012.22 1012.34 1012.50 1012.54 1012.70 1012.90 1013.02 1013.26 1013.30 1013.22 1013.50 1013.70 1013.82 1014.14 1014.34 1014.14 1014.02 1013.98 1014.06 1014.18 1014.10 1013.82 1013.62 1013.50 1013.02 1012.62 1012.34 1011.94 1011.74 1011.82 1012.18 1012.34 1012.18 1012.38 1012.42 1012.26 1012.02 1012.14 1012.30 1012.14 1011.74 1011.50 1011.46 1011.54 1011.70 1011.90 1012.14 1012.38 1012.62 1012.98 1013.06 1013.22 1013.58 1013.42 1013.66 1013.66 1013.26 1013.30 1013.58 1013.26 1012.86 1012.90 1013.06 1013.34 1013.46 1013.94 1014.22 1014.06 1013.82 1013.38 1013.22 1013.30 1013.54
1011.78 1011.90 1012.22 1012.34 1012.38 1012.42 1012.58 1012.66 1012.54 1012.50 1012.42 1012.86 1013.42 1013.78 1013.78 1013.62 1013.42 1013.22 1013.26 1013.18 1013.26 1013.18 1013.10 1012.90 1012.58 1012.22 1011.86 1011.50 1011.62 1011.82 1011.94 1012.06 1011.86 1011.70 1012.10 1012.26 1012.18 1012.06 1011.98 1012.34 1012.54 1012.22 1011.54 1011.06 1010.90 1010.94 1011.18 1011.38 1011.58 1011.94 1012.86 1012.90 1012.78 1012.82 1012.74 1012.78 1013.30 1013.34 1013.10 1012.94 1013.22 1014.10 1013.14 1012.86 1012.94 1013.26 1013.50 1013.90 1013.98 1013.90 1013.66 1013.34 1013.18 1013.10
1011.50 1011.98 1012.30 1012.66 1012.74 1012.74 1012.78 1012.74 1012.70 1012.50 1012.30 1012.22 1012.38 1012.58 1012.66 1012.70 1012.58 1012.46 1012.34 1012.34 1012.22 1012.10 1011.98 1011.94 1011.78 1011.70 1011.58 1011.66 1011.42 1011.30 1011.38 1011.38 1011.42 1011.38 1011.70 1011.94 1012.02 1011.74 1011.86 1012.50 1012.58 1012.10 1011.78 1011.26 1010.90 1010.58 1010.66 1010.86 1011.18 1011.34 1011.70 1012.18 1012.78 1012.46 1012.26 1012.58 1013.02 1012.98 1012.90 1012.50 1012.66 1012.46 1011.98 1012.58 1012.86 1013.02 1013.14 1013.58 1014.06 1014.22 1014.06 1013.70 1013.34 1013.06
1011.10 1011.34 1012.10 1012.82 1013.18 1013.22 1013.14 1012.82 1012.46 1012.06 1011.94 1011.82 1011.58 1011.62 1011.62 1011.70 1011.82 1011.90 1011.98 1012.06 1011.78 1011.58 1011.58 1011.58 1011.50 1011.46 1011.30 1011.18 1010.94 1010.98 1011.06 1010.98 1010.98 1010.82 1011.22 1011.26 1011.62 1011.62 1011.66 1012.10 1011.86 1011.86 1011.94 1011.70 1011.26 1010.90 1010.66 1010.70 1010.62 1010.90 1011.10 1011.26 1011.42 1011.74 1012.38 1013.02 1012.58 1012.26 1012.50 1012.38 1012.46 1012.50 1012.06 1011.70 1012.14 1012.74 1012.90 1013.62 1014.06 1013.98 1014.26 1013.78 1013.18 1012.78
1011.98 1011.82 1011.70 1011.50 1011.82 1012.26 1012.54 1012.50 1012.14 1011.78 1011.42 1011.30 1011.10 1010.70 1010.66 1010.74 1010.82 1010.90 1010.98 1010.90 1010.86 1010.86 1010.94 1010.82 1010.94 1010.90 1010.82 1010.86 1010.74 1010.74 1010.74 1010.58 1010.46 1010.34 1010.70 1010.98 1010.94 1011.54 1011.74 1011.86 1011.58 1011.14 1011.18 1011.22 1011.02 1010.82 1010.62 1010.70 1010.78 1010.90 1010.86 1010.98 1010.86 1011.06 1011.46 1012.14 1012.30 1011.98 1011.78 1011.86 1012.06 1012.30 1011.78 1011.54 1011.62 1011.86 1012.38 1013.18 1013.78 1014.06 1013.90 1013.90 1013.18 1012.62
1011.58 1011.50 1011.34 1011.06 1011.06 1011.26 1011.62 1011.70 1011.46 1011.10 1010.86 1010.66 1010.50 1010.10 1009.86 1009.86 1010.10 1010.18 1010.18 1010.06 1010.06 1010.14 1010.22 1010.30 1010.18 1010.18 1010.30 1010.34 1010.26 1010.34 1010.30 1010.34 1010.14 1009.90 1009.78 1009.98 1010.38 1010.82 1011.02 1011.22 1011.02 1010.86 1010.78 1010.78 1010.62 1010.34 1010.34 1010.70 1011.10 1011.58 1011.74 1011.66 1011.86 1011.14 1010.38 1010.66 1011.62 1011.58 1011.42 1011.38 1011.42 1011.66 1011.58 1011.26 1011.26 1011.50 1012.14 1012.66 1013.02 1013.78 1013.50 1013.30 1013.22 1012.62
1010.94 1010.82 1010.66 1010.50 1010.34 1010.42 1010.86 1010.82 1010.62 1010.34 1010.02 1009.82 1009.66 1009.30 1009.14 1008.94 1008.78 1009.10 1009.30 1009.18 1009.38 1009.42 1009.50 1009.58 1009.70 1009.70 1009.70 1009.70 1009.70 1009.66 1009.62 1009.62 1009.62 1009.54 1009.58 1009.58 1009.82 1009.98 1010.10 1010.26 1010.26 1010.22 1010.10 1010.14 1010.10 1009.78 1009.90 1010.26 1010.66 1011.62 1012.22 1012.26 1012.50 1012.50 1011.58 1009.90 1010.14 1010.58 1011.14 1011.10 1010.70 1010.82 1010.86 1010.90 1010.98 1011.22 1011.90 1012.54 1012.70 1013.18 1013.58 1013.26 1012.74 1012.38
1010.50 1010.26 1009.94 1009.70 1009.54 1009.58 1009.66 1009.54 1009.42 1009.26 1009.10 1008.94 1008.74 1008.38 1008.22 1008.18 1007.86 1007.66 1007.70 1008.06 1008.46 1008.62 1008.62 1008.70 1008.82 1008.82 1008.94 1008.98 1009.02 1009.06 1008.98 1009.10 1009.26 1009.14 1009.18 1009.06 1009.06 1009.22 1009.58 1009.62 1009.74 1009.78 1009.82 1009.58 1009.46 1009.54 1009.54 1010.06 1010.18 1010.86 1011.62 1012.06 1012.46 1012.58 1011.46 1010.02 1009.66 1009.30 1009.90 1010.46 1010.22 1009.86 1010.38 1010.74 1011.14 1011.50 1011.46 1011.90 1012.46 1012.74 1013.02 1012.90 1012.54 1011.98
1009.66 1009.30 1009.26 1008.90 1008.70 1008.58 1008.46 1008.38 1008.30 1008.22 1008.06 1007.94 1007.86 1007.66 1007.34 1007.06 1006.86 1006.82 1006.74 1007.22 1007.58 1007.78 1007.94 1008.06 1007.98 1008.02 1008.02 1008.14 1008.46 1008.46 1008.34 1008.26 1008.38 1008.54 1008.46 1008.50 1008.74 1008.78 1008.70 1008.86 1009.10 1009.18 1009.26 1009.18 1009.22 1009.26 1009.10 1009.58 1010.06 1010.30 1010.86 1011.46 1011.70 1011.58 1011.22 1009.74 1009.70 1009.58 1008.98 1009.46 1009.86 1009.70 1009.66 1010.50 1011.14 1011.50 1011.54 1011.46 1011.98 1012.10 1012.42 1012.70 1012.38 1011.78
1008.94 1008.78 1008.66 1008.42 1008.06 1007.94 1007.86 1007.58 1007.42 1007.30 1007.10 1007.06 1007.06 1006.86 1006.66 1006.46 1006.26 1006.30 1006.42 1006.50 1006.62 1006.98 1007.18 1007.26 1007.26 1007.22 1007.26 1007.26 1007.34 1007.62 1007.86 1007.90 1007.94 1007.86 1007.90 1007.86 1007.74 1007.94 1008.10 1008.22 1008.46 1008.42 1008.74 1008.90 1008.90 1008.90 1008.86 1009.14 1009.22 1009.38 1009.62 1010.10 1010.26 1009.78 1009.30 1009.46 1009.30 1008.46 1008.54 1008.90 1009.18 1009.50 1009.66 1009.98 1010.62 1010.78 1011.10 1011.46 1011.58 1011.54 1011.66 1011.62 1011.74 1011.74
1008.26 1008.02 1007.90 1007.74 1007.42 1007.22 1007.14 1006.86 1006.66 1006.34 1006.26 1006.18 1006.06 1005.78 1005.78 1005.86 1005.86 1005.86 1005.82 1005.82 1005.98 1006.02 1006.14 1006.30 1006.42 1006.54 1006.66 1006.62 1006.66 1006.66 1006.78 1006.98 1007.14 1007.10 1007.14 1007.18 1007.22 1007.30 1007.46 1007.46 1007.82 1008.02 1008.38 1008.66 1008.94 1008.70 1008.62 1008.50 1008.34 1008.22 1008.18 1008.10 1007.90 1007.70 1007.86 1008.10 1008.10 1007.78 1008.10 1008.50 1008.74 1008.86 1008.94 1009.26 1009.94 1010.34 1010.78 1010.74 1010.98 1011.66 1011.94 1011.94 1012.38 1012.14
1008.30 1008.14 1007.70 1007.26 1007.06 1006.98 1006.94 1006.54 1006.26 1006.14 1006.42 1006.62 1006.18 1005.46 1005.06 1004.94 1005.10 1005.06 1005.02 1005.06 1005.10 1005.34 1005.54 1005.54 1005.62 1005.86 1005.94 1005.94 1005.98 1006.14 1006.34 1006.22 1006.26 1006.30 1006.42 1006.58 1006.78 1006.98 1007.10 1007.38 1007.70 1007.78 1008.30 1008.58 1008.58 1008.54 1008.14 1007.38 1006.86 1006.74 1007.06 1007.22 1007.34 1007.54 1008.42 1009.10 1009.38 1008.98 1008.58 1008.30 1008.46 1008.66 1008.58 1008.54 1008.94 1009.50 1010.14 1010.18 1010.78 1011.42 1011.86 1011.94 1011.98 1012.02
1008.02 1007.90 1007.54 1007.38 1007.54 1007.62 1007.46 1007.46 1007.62 1007.50 1007.22 1006.86 1006.74 1006.62 1006.14 1005.62 1004.90 1004.58 1004.62 1004.62 1004.66 1004.74 1004.86 1004.90 1005.02 1005.22 1005.22 1005.26 1005.34 1005.42 1005.78 1006.10 1006.10 1005.98 1005.82 1005.82 1005.90 1006.18 1006.62 1007.02 1007.46 1007.54 1008.02 1008.14 1007.82 1007.50 1006.82 1006.18 1006.10 1006.42 1006.78 1007.38 1008.14 1008.98 1009.34 1008.98 1009.10 1008.86 1008.54 1008.10 1008.06 1008.38 1008.50 1008.58 1008.78 1008.94 1009.38 1009.98 1010.42 1010.98 1011.38 1011.42 1011.34 1011.78
1006.98 1007.18 1007.38 1007.50 1007.78 1008.06 1008.18 1007.90 1007.66 1007.50 1007.42 1007.62 1007.90 1007.90 1007.54 1007.10 1006.34 1005.34 1004.78 1004.50 1004.26 1004.34 1004.26 1004.22 1004.14 1004.22 1004.30 1004.38 1004.90 1006.14 1006.82 1006.58 1005.86 1005.58 1005.38 1005.34 1005.62 1005.86 1006.18 1006.42 1006.66 1006.94 1007.14 1006.86 1006.42 1006.26 1006.18 1006.06 1005.94 1006.22 1006.58 1007.18 1007.90 1008.46 1009.06 1008.90 1008.74 1008.58 1008.34 1008.14 1008.06 1008.14 1008.42 1008.50 1008.70 1009.14 1009.42 1009.78 1010.06 1010.26 1010.06 1010.22 1010.74 1011.58
1006.82 1006.98 1007.26 1007.26 1007.30 1007.50 1007.62 1007.26 1006.98 1007.06 1007.50 1007.82 1007.66 1007.34 1007.58 1007.62 1007.42 1006.82 1005.86 1005.14 1004.58 1004.18 1003.78 1003.70 1003.78 1003.98 1004.02 1004.62 1005.50 1005.46 1005.02 1004.94 1004.94 1004.98 1005.10 1005.18 1005.30 1005.34 1005.46 1005.58 1005.86 1006.18 1006.34 1006.42 1006.14 1005.82 1005.70 1005.94 1005.86 1005.98 1006.70 1007.18 1007.42 1008.18 1008.74 1008.62 1008.58 1008.06 1007.78 1007.38 1007.18 1007.42 1008.02 1008.30 1008.62 1009.14 1009.58 1009.58 1009.70 1010.14 1009.98 1009.66 1009.62 1009.86
1008.90 1008.70 1008.46 1008.02 1007.66 1007.50 1007.42 1007.14 1006.90 1006.70 1006.78 1007.02 1007.02 1007.14 1007.06 1007.18 1006.82 1005.66 1004.62 1004.26 1004.34 1004.02 1003.74 1003.62 1003.58 1003.50 1003.82 1004.74 1004.74 1004.38 1004.10 1004.22 1004.50 1004.38 1004.46 1004.62 1004.66 1004.70 1004.90 1005.10 1005.30 1005.58 1005.78 1005.74 1005.90 1005.70 1005.58 1005.94 1005.78 1005.90 1006.26 1006.58 1006.78 1007.30 1007.58 1007.94 1008.10 1008.02 1007.86 1007.62 1007.34 1006.94 1007.30 1008.10 1008.82 1009.26 1009.50 1009.50 1009.58 1009.94 1009.98 1009.90 1010.02 1010.10
Wind_Speed
6 5 6 4 4 4 1 3 1 3 2 1 1 3 3 2 3 2 1 3 2 2 5 3 2 3 1 2 3 2 3 4 2 5 3 4 3 8 7 4 3 3 2 1 2 3 2 2 3 4 4 4 3 4 4 4 4 4 5 6 6 7 7 7 8 8 8 8 8 9 10 11 12 12
4 5 4 5 4 4 4 4 3 4 2 2 3 2 3 1 2 2 3 2 4 2 3 3 4 4 2 4 4 3 1 7 1 4 5 4 3 5 8 7 6 5 5 4 2 2 2 2 2 3 3 2 1 3 3 4 4 4 4 5 5 6 7 7 7 8 8 8 9 10 11 12 12 12
4 3 4 4 4 3 4 4 4 4 4 3 3 1 1 0 1 1 1 4 2 4 4 3 4 3 1 4 5 4 4 6 1 4 4 5 2 7 7 9 9 7 6 7 5 4 1 1 1 2 0 2 2 2 4 4 3 3 3 4 5 5 6 6 7 7 8 9 10 10 11 12 12 12
4 4 5 4 4 4 4 4 4 4 4 3 4 3 3 3 2 1 2 3 3 3 6 3 4 4 4 4 3 4 5 3 6 2 4 4 5 10 4 13 11 9 8 7 6 5 3 1 2 2 2 3 3 4 4 3 3 3 2 3 4 4 5 5 6 7 8 9 9 10 11 12 12 12
4 4 5 5 5 5 5 4 5 5 5 5 4 3 2 3 4 4 3 3 4 4 4 4 5 4 4 4 2 5 5 5 2 4 5 5 7 5 4 8 10 11 9 8 7 5 4 3 3 3 4 5 5 4 4 3 2 1 2 2 2 3 4 5 5 6 7 8 10 11 10 11 11 11
5 5 6 6 6 6 6 6 6 6 6 7 6 6 5 4 3 4 3 4 4 4 4 5 3 5 4 6 3 4 5 5 5 6 5 6 5 3 5 2 8 11 10 9 9 7 5 5 5 6 6 6 5 4 2 2 2 1 1 0 1 1 2 4 4 5 6 8 9 10 10 11 11 11
7 7 6 7 7 6 7 7 6 6 6 6 5 6 6 6 5 4 4 3 5 6 5 4 6 5 3 4 5 6 5 5 5 5 6 6 5 4 4 6 4 12 12 12 11 10 8 7 8 8 8 7 7 5 4 3 3 3 2 1 1 1 2 3 4 4 6 7 9 10 10 10 11 11
8 8 7 7 7 7 7 6 6 6 7 5 5 5 5 5 5 4 4 5 5 5 6 5 6 5 6 6 6 6 5 6 5 5 5 6 6 5 6 6 5 11 14 13 13 11 10 9 9 10 10 9 8 7 6 6 5 3 3 2 2 2 2 3 3 4 5 7 8 9 10 10 10 11
7 8 8 7 7 7 7 7 7 7 8 7 6 6 6 6 6 6 6 6 6 6 7 6 5 6 6 7 7 7 6 5 5 5 5 6 6 5 6 7 4 13 13 12 13 12 11 11 11 12 12 11 10 9 8 7 6 4 3 3 2 2 3 2 3 4 5 6 8 9 10 10 10 10
8 8 8 9 8 9 8 8 7 7 9 8 8 8 7 6 6 6 6 6 6 7 7 7 7 6 8 7 6 5 5 7 6 5 5 5 5 5 6 5 6 3 6 6 6 6 7 11 12 13 13 12 12 11 10 8 7 5 4 3 2 3 3 3 3 4 5 6 7 8 11 11 10 10
9 10 9 9 9 9 9 9 9 9 9 8 8 7 8 7 7 7 6 7 7 7 8 8 8 7 7 7 7 6 6 6 6 6 6 6 5 4 4 5 5 6 7 6 7 12 12 13 10 12 13 14 13 12 11 9 8 7 6 4 4 4 4 4 3 4 5 6 6 6 8 9 10 9
10 10 10 10 10 10 10 10 10 9 8 7 8 7 7 7 8 8 7 7 7 7 8 8 7 7 5 5 6 6 6 7 7 7 7 6 5 5 4 6 6 6 5 7 8 6 6 9 11 12 11 12 13 13 10 10 9 9 7 5 5 4 4 4 4 4 5 5 6 6 6 7 8 7
10 10 10 10 11 9 11 13 10 9 4 5 7 6 6 7 7 8 8 7 7 7 8 8 7 7 7 7 7 7 6 7 7 5 5 6 6 6 6 5 4 5 6 6 7 6 5 4 9 7 7 8 11 10 11 9 11 10 8 7 5 4 3 4 4 5 5 5 5 5 5 6 6 7
11 12 11 10 11 9 10 13 13 12 10 7 8 6 5 7 8 8 8 8 7 7 8 8 8 8 8 8 7 7 7 6 5 7 6 7 6 6 6 5 6 6 6 6 6 6 6 7 6 5 9 8 10 7 8 8 9 11 10 8 6 5 3 3 4 5 5 6 5 5 5 5 6 6
12 12 12 11 11 8 7 9 13 14 15 15 13 11 10 7 6 8 10 9 8 8 8 8 9 9 9 9 8 8 8 7 7 7 5 6 6 6 7 7 5 5 6 5 6 7 7 7 7 7 8 4 9 9 10 14 15 14 12 10 8 5 3 4 4 5 6 6 6 6 5 5 5 6
12 12 12 12 11 11 12 11 11 13 16 16 15 15 14 14 14 11 8 7 7 9 9 9 9 9 8 7 7 7 7 6 5 5 5 5 5 6 7 7 7 4 4 6 7 8 7 7 8 7 7 7 7 6 12 17 16 15 13 11 9 7 5 4 4 5 6 6 7 6 5 4 4 4
12 10 11 12 11 11 12 12 12 10 12 14 17 16 16 15 14 14 15 13 10 8 9 9 9 9 8 8 8 7 7 5 7 6 6 6 6 6 8 8 7 6 5 6 7 9 8 7 9 9 7 9 3 9 13 17 16 15 13 12 10 9 7 5 5 5 6 6 7 6 6 4 3 3
12 11 11 11 11 11 10 8 9 9 10 10 11 11 10 11 14 16 18 17 17 14 12 11 11 10 8 9 8 7 6 7 7 7 7 7 7 7 8 8 8 7 7 8 8 9 9 8 9 8 5 6 6 7 12 16 16 15 14 12 11 10 8 7 5 6 6 6 6 7 7 6 5 4
11 10 11 13 13 10 10 10 10 11 11 11 10 11 13 13 13 13 14 15 13 13 13 15 15 13 11 10 10 8 7 8 7 7 8 7 7 7 8 8 9 10 8 10 9 10 8 7 7 7 7 6 5 6 11 16 15 15 13 12 11 11 10 8 7 6 6 5 6 7 8 8 8 7
10 11 12 11 12 11 11 11 13 12 11 11 12 12 12 12 12 13 14 16 16 15 15 15 15 15 15 13 11 9 9 8 8 9 9 9 8 8 8 9 9 10 8 8 8 8 8 7 8 7 7 5 5 7 6 12 15 15 14 13 12 11 10 9 7 7 6 5 5 6 9 10 12 10
12 13 12 12 13 13 12 13 13 14 12 12 13 12 13 12 13 13 11 17 20 19 19 18 19 17 15 14 10 7 5 6 5 5 6 7 7 8 9 9 9 9 8 8 9 8 8 7 7 8 8 5 6 5 7 6 10 13 12 11 10 9 9 8 8 8 7 5 4 5 8 11 12 14
11 13 17 14 14 14 13 14 14 15 13 12 13 13 13 13 14 13 13 9 13 23 23 23 20 19 18 16 11 7 7 6 4 7 10 11 9 10 10 10 9 9 9 9 8 8 8 7 7 7 6 6 5 9 5 8 8 8 8 7 8 8 8 8 8 8 8 6 4 3 6 10 13 9
12 13 12 17 15 14 14 14 13 16 13 13 14 14 13 14 15 14 12 13 11 7 9 9 11 10 10 9 8 9 14 12 9 8 11 10 10 10 11 9 9 10 9 9 7 8 9 8 7 6 6 7 6 5 7 7 7 7 7 6 5 9 9 9 9 9 10 8 7 6 5 8 10 5
12 12 13 13 18 20 17 15 13 15 17 14 14 13 13 14 15 12 12 11 11 9 9 12 12 13 13 12 11 11 12 11 12 12 12 12 12 11 11 11 10 10 8 6 8 7 6 6 6 5 7 8 7 2 8 7 8 8 8 8 7 10 10 7 7 11 12 9 8 7 6 5 6 4
12 12 12 13 15 21 21 19 16 15 17 17 14 14 13 14 9 4 10 11 13 12 10 8 9 10 9 10 10 11 11 12 12 13 14 14 13 12 12 12 12 12 11 9 8 7 8 7 8 6 7 7 8 8 6 5 9 9 9 9 7 8 7 7 6 7 10 11 9 8 7 7 2 2
12 12 12 11 12 18 21 21 20 19 16 18 12 15 17 15 11 9 8 9 9 10 10 12 11 10 10 11 11 12 12 12 12 12 12 14 14 14 14 13 12 11 10 7 7 7 4 6 7 7 7 8 9 9 8 6 8 9 9 8 8 8 9 8 8 8 7 6 6 7 8 10 6 4
12 11 12 12 13 16 19 21 21 20 19 13 13 20 18 15 14 7 8 9 10 10 10 10 9 8 10 10 10 11 11 11 10 11 11 12 14 13 13 13 13 13 11 10 6 5 5 6 5 7 8 8 9 8 9 9 6 8 9 9 8 10 9 8 9 9 9 8 7 11 11 10 9 8
12 11 11 9 11 13 17 19 19 19 18 15 19 19 19 18 12 8 9 10 11 10 11 11 11 10 10 10 11 10 10 10 8 9 9 9 11 13 12 12 13 12 11 10 9 8 7 8 8 8 8 9 10 10 10 8 7 5 7 8 8 7 8 7 7 6 7 7 7 7 7 6 6 5
12 11 6 8 6 11 15 18 17 16 18 22 20 20 20 16 9 10 11 12 12 12 12 12 12 12 11 11 11 10 9 8 7 8 9 10 11 11 10 11 11 10 9 10 11 10 9 9 10 8 8 8 10 10 9 9 7 3 6 5 6 7 8 9 7 7 6 7 7 8 8 7 7 7
12 12 14 6 1 3 7 8 7 8 10 17 20 19 15 10 11 11 12 12 13 14 13 13 13 13 12 12 12 10 9 8 10 9 9 9 10 11 10 9 8 10 13 12 12 11 10 10 10 9 9 9 10 10 10 10 10 5 5 7 6 4 6 8 7 7 7 7 7 6 6 6 6 6
11 11 10 9 9 7 8 12 11 11 12 12 11 9 10 11 12 12 13 14 13 13 13 13 12 12 12 11 10 10 10 11 10 10 9 11 11 10 9 9 10 10 10 12 12 12 12 10 9 9 9 9 10 11 10 9 9 8 7 5 6 7 7 8 7 7 6 7 6 6 5 6 6 5
6 6 7 9 10 10 8 8 7 9 10 10 9 10 10 11 13 15 15 14 13 12 12 12 12 11 11 12 12 12 12 12 11 10 11 10 11 11 9 9 11 11 10 10 11 10 9 9 9 8 9 9 10 10 9 9 9 9 9 6 7 10 6 9 8 7 6 6 7 7 6 7 7 7
5 5 4 8 11 12 13 14 13 13 14 14 14 15 13 12 13 14 14 15 15 14 13 14 13 13 13 13 12 12 13 11 11 10 10 10 10 10 11 12 12 11 11 11 9 8 9 10 9 9 9 9 10 10 9 8 10 10 10 7 6 8 6 4 7 7 7 6 7 8 7 8 7 8
6 6 8 10 11 12 13 14 15 16 14 14 15 16 14 14 15 15 14 15 15 13 13 13 13 13 13 13 13 13 13 11 11 11 11 11 11 11 12 13 13 11 10 10 9 9 8 8 8 8 9 9 8 9 9 11 10 8 8 6 5 7 7 7 7 9 9 9 7 9 9 9 8 6
9 9 10 10 10 11 13 14 15 14 14 14 15 16 15 15 15 14 15 14 13 13 14 14 14 13 13 13 12 13 13 13 12 12 11 11 11 12 13 13 12 11 11 11 10 9 8 7 7 9 7 7 8 10 12 11 10 13 10 9 7 9 8 8 7 6 9 9 8 8 9 9 9 8
9 8 8 8 9 10 12 14 13 14 15 14 15 16 16 16 14 14 15 13 13 14 14 13 13 14 14 13 13 13 13 12 13 13 12 13 13 12 13 13 12 12 11 11 10 9 9 10 9 11 11 10 10 11 12 15 16 11 12 10 9 9 8 6 7 6 9 9 8 8 10 9 7 9
9 10 10 10 10 11 13 13 14 15 15 16 16 16 14 14 13 13 13 13 13 13 13 13 13 13 13 13 13 13 13 13 14 13 13 13 13 12 13 12 12 11 11 12 10 10 9 10 9 11 12 11 10 12 11 5 18 21 11 12 9 10 9 7 7 8 8 8 8 8 8 8 8 6
11 10 9 10 10 11 12 13 14 14 15 15 16 15 14 14 12 10 10 11 13 14 13 14 13 12 14 13 14 14 14 14 14 14 14 14 14 14 14 13 13 14 14 11 12 12 9 9 10 11 13 14 15 15 14 11 7 11 17 12 11 8 8 7 8 8 7 8 8 7 7 10 9 7
11 10 10 10 10 11 13 14 15 15 15 14 16 16 14 14 14 11 12 13 11 12 13 14 14 14 14 15 14 13 14 14 15 15 15 16 15 14 13 13 12 12 12 13 13 14 12 13 13 12 13 13 16 14 12 10 10 8 11 18 10 8 9 10 9 7 8 8 7 6 8 2 5 6
12 10 10 10 11 12 14 16 16 15 15 15 17 15 14 14 13 13 14 13 12 12 14 14 14 13 14 14 14 15 15 15 15 14 14 14 13 14 14 11 11 11 10 12 14 14 13 15 14 13 14 14 13 11 7 5 3 3 7 15 20 12 9 10 10 9 8 8 7 8 10 6 6 4
10 10 11 11 12 13 14 16 15 12 9 9 13 13 13 13 14 15 14 14 12 12 13 14 12 13 15 15 14 14 15 14 14 15 14 13 12 10 10 8 9 9 11 11 12 13 14 14 14 15 12 10 5 5 1 5 8 6 7 6 14 20 12 5 7 9 7 7 7 8 9 10 10 8
8 10 10 9 9 11 12 11 10 9 9 9 10 11 10 10 11 13 12 11 11 11 13 15 14 13 15 14 15 14 14 14 14 14 13 14 13 11 10 8 10 12 12 14 14 14 11 12 10 11 10 8 5 6 9 9 9 7 6 7 6 13 18 14 6 4 3 1 5 8 8 8 8 10
6 8 9 6 7 9 8 10 11 10 9 9 11 13 13 11 12 11 11 13 12 14 15 15 15 15 14 14 8 3 6 11 14 13 13 14 13 10 9 10 12 14 17 15 13 12 11 6 5 7 8 8 7 6 8 9 10 10 7 8 7 6 9 15 17 13 10 9 6 2 2 3 8 10
7 7 7 10 11 10 10 10 9 8 7 8 12 11 8 9 10 12 10 10 11 12 12 13 11 12 11 2 2 7 11 12 12 11 11 12 11 10 11 11 11 13 15 16 14 13 11 8 7 7 8 9 7 7 10 10 9 10 8 8 9 9 8 8 9 9 8 11 10 5 7 11 9 9
8 7 6 7 7 6 6 5 6 9 9 10 10 10 11 12 13 14 12 9 10 11 9 9 9 10 6 2 7 11 10 9 9 10 10 11 12 11 10 11 10 11 13 14 15 13 9 8 8 7 7 7 9 11 11 10 9 7 7 8 10 9 9 8 9 9 9 9 3 8 8 9 10 12
Wind_Direction
219 213 212 221 236 257 302 287 287 47 8 286 355 357 50 25 348 324 104 312 346 64 334 136 77 47 359 278 306 278 277 92 4 321 305 309 149 156 142 156 191 206 176 259 274 307 322 351 359 346 344 354 4 45 59 56 61 50 43 38 27 22 19 4 0 356 351 345 342 342 346 348 347 344
240 234 216 206 222 233 233 213 256 128 188 229 200 180 113 50 4 18 326 337 290 41 307 0 127 156 327 274 256 228 44 126 272 325 306 292 336 135 154 174 209 213 176 182 237 261 309 9 10 335 345 352 46 96 86 85 78 58 48 32 25 21 11 3 356 356 350 346 347 350 350 351 349 345
229 245 231 229 237 245 252 252 214 168 191 208 273 170 97 218 89 352 337 270 67 327 300 342 13 316 145 332 313 331 327 144 31 309 309 289 344 264 176 175 196 214 191 179 190 197 201 45 306 309 266 170 138 125 115 108 86 73 48 29 28 13 8 353 353 354 353 349 350 351 352 352 349 346
213 214 230 231 244 239 238 241 240 195 195 225 211 206 196 193 211 194 280 294 303 290 284 337 297 288 16 304 285 320 298 134 151 275 281 275 250 261 197 170 179 207 196 184 181 179 174 191 254 238 171 160 157 141 137 118 100 83 47 36 21 8 357 349 345 356 353 352 351 350 352 353 350 346
210 215 232 235 227 243 242 232 236 220 200 207 223 243 212 238 212 203 222 269 284 281 305 305 280 309 329 311 325 280 280 295 292 297 286 296 290 291 321 164 178 197 195 183 187 177 195 204 210 208 194 181 169 162 143 121 117 92 63 42 17 356 350 336 338 350 353 352 352 351 353 353 350 346
243 214 223 229 227 221 234 237 235 238 227 202 213 196 223 231 239 211 231 252 279 290 276 265 308 304 265 263 254 291 296 293 302 293 295 283 279 301 313 189 178 197 194 188 183 177 184 198 200 190 194 190 179 175 148 138 161 150 126 65 302 306 309 320 332 347 353 352 353 351 351 353 351 348
223 227 221 224 228 221 213 225 238 243 242 244 237 231 221 221 220 202 195 234 259 270 284 286 268 259 274 279 291 289 283 284 272 272 278 284 298 307 277 290 175 185 195 192 185 176 182 186 189 188 193 188 185 178 174 180 176 171 184 232 240 254 286 319 327 349 354 358 356 353 351 353 352 351
223 226 227 233 229 229 230 223 231 238 244 236 240 255 264 278 275 277 260 232 242 257 270 268 271 282 288 281 280 271 266 271 271 284 293 284 278 283 291 282 289 176 196 193 183 177 182 187 186 189 190 189 187 183 182 192 184 183 208 227 231 269 299 300 330 341 353 357 1 357 352 355 354 353
229 227 229 228 228 229 235 228 224 232 237 234 233 234 233 238 239 238 235 234 230 240 253 262 261 266 264 268 268 268 272 276 277 257 262 282 285 280 281 290 279 164 186 197 183 181 181 188 190 188 188 188 188 187 191 191 187 186 199 222 258 280 286 303 314 337 344 353 2 5 358 355 353 349
227 232 228 228 226 229 229 230 229 229 235 230 227 232 241 241 236 235 237 240 245 251 255 261 268 256 258 257 255 262 269 272 276 287 283 272 260 250 257 274 300 290 176 191 181 186 193 198 197 191 189 192 189 190 193 191 185 188 192 216 252 272 283 303 310 320 325 353 360 8 4 360 354 357
222 225 228 227 230 233 234 236 233 225 226 237 236 228 230 233 244 244 239 237 242 243 248 251 252 262 260 257 260 248 241 251 267 279 282 277 275 267 263 266 274 287 294 316 222 194 191 186 193 195 198 194 193 193 195 192 187 179 192 199 232 245 276 286 307 316 323 345 358 356 0 356 2 2
230 223 223 226 223 223 227 232 239 240 237 230 235 233 230 231 234 242 244 243 243 241 246 250 258 261 271 268 273 282 265 257 251 252 259 267 277 282 276 274 273 272 291 277 294 140 156 165 186 188 204 202 198 196 193 195 187 182 171 191 210 233 256 282 301 308 314 333 351 355 349 353 353 3
229 238 238 231 232 218 204 213 223 242 268 260 240 229 239 241 233 234 244 247 243 249 254 262 263 261 258 258 260 262 259 258 266 272 279 287 288 280 275 261 272 292 274 275 282 290 302 234 183 195 202 207 199 201 204 193 185 179 174 182 200 218 242 285 293 305 309 318 336 344 343 338 351 4
231 231 237 242 235 224 206 196 200 212 231 243 256 260 234 233 235 238 242 242 243 245 251 252 255 255 255 255 242 246 252 255 251 255 243 255 262 275 281 284 271 262 271 275 278 284 277 283 292 199 215 196 181 199 195 205 184 172 171 175 191 202 234 271 287 291 296 303 317 323 335 338 346 338
236 238 237 242 241 214 191 193 196 203 210 214 224 241 257 270 261 245 240 239 244 250 247 245 246 252 258 261 272 277 281 281 283 278 280 280 289 285 282 287 294 266 272 275 274 265 266 282 274 271 278 255 169 206 197 185 158 157 164 171 182 179 210 252 266 278 280 290 297 312 326 344 340 331
232 237 241 240 239 234 229 227 196 204 207 211 216 222 228 236 244 245 251 259 253 244 248 250 253 260 260 267 264 267 268 276 288 306 308 300 290 282 279 278 279 300 271 268 272 268 272 264 266 272 257 262 242 186 136 145 149 156 164 172 169 172 192 222 257 273 281 283 295 301 318 325 340 326
234 235 235 241 243 250 223 209 222 202 206 210 215 218 224 231 234 239 240 237 240 259 260 258 257 251 258 259 258 260 273 281 272 271 267 272 271 264 269 267 276 276 294 288 268 274 277 281 280 274 252 252 167 119 141 145 151 157 167 168 166 167 184 207 230 258 268 280 285 299 309 309 303 293
229 227 234 235 238 238 244 238 223 223 217 206 209 219 223 227 227 227 232 235 233 234 244 250 254 252 248 253 255 259 261 261 261 266 269 270 269 270 266 275 274 275 275 264 276 279 277 276 278 271 276 278 130 149 146 152 155 161 166 167 166 173 175 194 213 238 259 271 283 294 301 304 298 278
241 234 229 232 236 236 235 233 229 227 225 223 218 213 219 222 227 223 220 220 222 221 228 234 241 245 245 247 247 247 245 248 245 248 261 266 272 275 281 281 274 272 255 253 257 265 266 271 266 267 263 264 162 137 156 163 163 162 165 168 173 169 181 184 202 222 238 257 281 293 302 307 299 281
233 233 238 237 234 235 234 227 220 221 226 229 228 229 228 228 229 231 221 212 211 217 219 223 229 233 236 235 240 242 246 239 229 237 238 240 241 249 257 262 269 269 265 256 243 239 255 261 270 274 280 283 243 154 166 173 166 165 167 172 174 180 177 189 194 210 224 237 273 293 307 309 306 292
236 235 231 231 237 235 234 228 211 214 213 230 233 234 237 240 244 242 233 201 204 209 219 220 223 232 239 242 243 253 243 243 273 277 264 255 256 261 263 266 267 267 274 267 269 251 243 253 264 266 264 262 271 231 163 162 174 166 168 170 178 181 182 185 200 211 218 220 244 290 310 311 312 301
236 233 231 229 232 236 236 225 208 206 204 222 231 238 242 244 245 247 250 248 204 206 206 213 217 220 226 235 237 241 250 233 219 227 243 247 249 249 251 259 257 266 267 265 270 283 260 251 243 253 263 271 248 255 169 150 145 157 162 177 180 191 189 192 205 217 217 217 229 273 300 309 316 293
232 235 228 224 227 232 236 231 208 202 199 221 229 233 238 243 245 247 249 247 254 209 215 231 227 240 239 236 233 228 221 216 210 228 239 246 247 251 253 258 265 268 262 262 246 242 257 261 264 264 268 263 256 274 108 141 151 170 173 173 192 202 199 201 215 224 229 222 214 226 269 306 318 305
228 229 234 220 214 225 230 233 213 204 203 216 227 231 235 239 241 245 248 252 256 257 213 211 215 221 225 228 227 232 229 220 215 224 230 234 238 243 245 245 249 256 263 264 264 267 260 257 266 259 273 285 282 247 141 161 166 170 177 171 196 187 197 204 234 235 238 225 217 222 233 269 322 329
229 228 228 237 208 209 218 222 216 205 209 216 224 229 236 237 248 285 253 247 241 249 258 246 222 220 218 223 234 234 228 229 225 220 223 228 229 231 236 245 249 254 253 252 230 253 255 251 260 265 265 266 271 276 260 192 163 174 183 178 184 158 176 197 213 212 218 233 234 228 219 224 267 1
232 231 230 233 215 200 210 216 217 213 207 215 224 232 235 244 254 264 263 271 266 255 239 238 243 244 238 234 235 237 240 230 222 224 217 215 221 224 232 238 246 254 253 243 185 239 238 239 254 261 262 264 266 270 270 253 170 176 179 191 185 162 176 189 204 208 195 198 206 213 209 203 198 168
238 234 235 236 222 193 204 210 216 216 213 209 223 233 238 239 244 255 255 258 261 262 265 265 259 239 237 239 239 238 240 243 244 240 232 206 206 221 229 237 242 248 254 267 257 240 247 258 243 248 257 259 270 271 269 268 263 157 186 196 188 162 190 195 200 202 191 191 198 186 191 182 196 192
241 243 242 234 227 194 200 207 212 215 211 217 223 230 236 239 239 243 247 246 247 252 254 253 254 253 246 244 239 236 238 243 237 240 253 257 222 207 220 230 238 245 255 257 254 249 236 243 254 254 252 261 263 265 270 265 265 183 197 194 211 203 183 212 208 209 198 190 179 176 196 193 191 197
255 272 333 348 288 202 196 202 207 212 215 218 223 225 231 233 236 232 235 240 239 240 238 238 240 241 240 238 242 244 246 243 242 249 255 249 253 253 232 217 221 226 233 241 246 247 251 250 252 247 250 250 254 254 258 264 270 225 202 238 213 202 198 200 212 206 201 208 210 199 197 181 175 202
265 302 309 295 15 185 212 204 198 206 210 217 223 230 231 230 231 231 231 230 232 236 236 234 234 235 235 236 234 235 236 239 240 239 236 241 247 240 244 249 238 229 238 238 235 237 235 238 242 250 252 245 243 255 255 259 260 252 201 221 251 156 185 194 207 201 198 214 216 211 196 182 176 176
252 255 263 279 281 292 203 212 225 223 212 203 213 222 222 225 228 226 226 229 228 228 231 234 235 233 234 237 235 224 220 224 229 224 229 241 239 236 238 241 244 244 241 243 241 234 232 230 230 231 239 244 246 247 251 256 261 261 252 221 226 238 175 194 198 205 195 208 224 219 208 193 173 194
246 265 298 306 299 277 261 233 233 237 232 223 209 208 211 217 222 230 233 234 235 233 228 232 234 235 231 233 231 230 228 227 221 218 228 228 236 238 236 233 239 243 244 241 240 233 224 231 229 220 227 236 242 242 244 248 252 252 254 238 222 239 214 184 193 204 185 194 217 219 221 214 196 185
173 157 184 247 257 265 261 260 252 245 241 240 239 237 228 222 220 220 223 227 227 224 224 226 225 228 227 231 231 232 233 228 221 216 219 221 231 235 241 244 246 241 241 239 236 233 224 224 220 229 232 238 239 243 241 241 243 248 252 236 221 232 228 215 168 196 175 193 216 221 211 231 220 196
222 219 225 225 229 237 247 252 251 247 243 241 241 241 236 236 238 232 223 223 225 220 222 225 224 226 226 228 227 230 233 230 231 222 214 220 218 228 232 239 241 242 244 246 245 245 234 217 221 221 231 238 241 235 233 239 243 241 236 230 216 238 214 205 182 181 166 183 200 231 214 219 230 208
208 209 214 221 225 232 243 247 245 243 242 241 245 245 238 235 233 233 237 230 222 220 220 221 225 225 225 228 227 230 228 232 232 231 217 214 219 226 231 237 239 236 238 239 236 230 233 214 200 223 220 226 242 244 236 234 239 241 242 226 213 227 219 209 202 173 155 182 198 228 239 218 212 207
217 214 214 221 224 227 232 236 240 242 241 237 237 242 241 238 229 221 229 229 230 227 223 222 221 223 225 226 228 228 230 228 231 231 230 228 227 226 229 234 239 238 236 239 240 235 228 230 222 229 236 230 229 243 242 206 213 235 228 223 215 213 210 195 185 177 168 190 202 221 237 236 221 191
213 208 210 213 217 222 231 234 234 234 236 238 240 240 240 237 237 232 216 205 221 227 230 228 228 223 224 226 227 225 228 228 232 229 233 232 234 232 231 230 231 234 237 237 239 240 227 228 224 226 231 235 237 240 243 208 210 216 224 231 222 203 194 186 177 193 185 186 204 219 235 244 246 210
228 216 221 221 222 226 232 237 238 236 235 234 235 235 236 238 235 230 226 206 207 216 221 227 233 230 229 226 226 230 230 230 231 232 229 230 232 234 235 234 232 238 240 237 240 242 231 224 219 220 223 233 238 240 248 235 213 222 223 230 228 201 178 172 192 190 188 189 211 211 221 246 246 240
222 223 221 230 229 230 235 237 237 236 234 232 234 231 232 232 232 230 228 231 222 215 219 226 228 230 233 232 232 232 234 235 236 238 238 238 233 233 231 234 237 233 234 238 236 237 229 228 223 218 216 222 234 240 242 248 244 218 197 211 229 212 190 188 197 192 192 193 206 204 222 226 36 56
224 226 232 235 236 234 238 239 238 236 234 230 234 232 228 227 228 230 231 228 226 224 227 226 226 230 232 231 233 235 235 234 235 240 239 241 238 238 236 232 237 238 236 238 240 237 229 230 224 219 217 223 235 242 258 260 293 216 177 196 216 222 206 188 198 195 197 197 198 207 219 179 191 183
226 230 236 237 241 242 245 246 247 250 268 273 262 251 238 231 230 232 232 232 231 229 230 231 231 229 235 236 232 232 237 236 235 234 235 237 238 233 238 239 241 239 242 239 236 238 239 235 229 219 220 234 221 77 117 247 237 228 215 190 200 220 234 229 195 196 199 189 195 199 210 210 220 209
220 236 246 251 260 269 269 272 285 286 273 273 270 267 267 263 255 240 240 238 235 233 237 240 238 235 237 239 240 235 237 245 245 242 240 243 239 225 214 213 231 235 236 239 238 240 242 246 227 198 201 200 159 199 225 227 237 240 232 228 200 203 214 213 197 155 118 244 229 210 201 204 214 232
224 230 238 242 240 253 269 270 267 277 282 286 283 278 278 274 267 261 245 244 240 239 239 239 241 243 244 242 247 324 297 262 252 247 246 245 244 236 222 210 218 230 240 242 240 241 242 227 179 188 190 179 186 183 224 228 230 234 227 216 216 185 203 215 218 195 161 138 125 300 234 219 213 221
278 262 273 270 258 252 245 250 253 240 243 257 260 273 282 285 291 278 265 258 256 251 246 245 244 250 252 299 73 224 231 240 245 249 244 244 240 236 232 226 219 220 230 241 241 236 229 196 193 178 179 192 173 181 212 223 223 223 214 199 201 196 191 187 209 205 220 253 220 144 69 75 76 95
348 343 317 296 299 306 310 277 244 263 260 246 242 243 248 252 251 253 251 248 259 266 261 256 253 249 235 153 234 240 238 242 242 239 236 232 232 232 235 235 230 220 220 227 236 240 220 191 189 178 194 183 183 194 206 214 221 224 221 213 206 193 176 180 197 203 215 220 174 149 130 112 106 100